Precipitable_Water
0.47 0.47 0.48 0.59 0.62 0.52 0.51 0.33 0.29 0.36 0.35 0.30 0.63 0.69 0.70 0.62 0.71 0.88 0.97 1.11 1.16 1.21 1.33 1.45 1.51 1.47 1.60 1.61 1.62 1.70 1.76 1.75 1.85 1.80 1.68 1.67 1.76 1.82 1.89 1.83 1.78 1.79 1.71 1.65
0.47 0.41 0.55 0.59 0.54 0.38 0.36 0.32 0.36 0.39 0.37 0.25 0.66 0.81 0.85 0.79 0.76 0.85 0.92 1.07 1.11 1.19 1.27 1.27 1.41 1.56 1.46 1.51 1.59 1.53 1.61 1.66 1.74 1.76 1.71 1.77 1.89 1.89 1.86 1.91 1.90 1.86 1.83 1.74
0.44 0.47 0.44 0.44 0.29 0.22 0.28 0.32 0.36 0.32 0.33 0.30 0.52 0.81 1.05 1.05 1.03 1.01 0.92 0.89 1.00 1.07 1.35 1.35 1.32 1.37 1.52 1.58 1.60 1.53 1.50 1.68 1.70 1.76 1.76 1.80 1.90 1.97 1.87 1.92 1.93 1.92 1.96 1.94
0.37 0.51 0.43 0.31 0.23 0.28 0.31 0.41 0.35 0.28 0.25 0.28 0.40 0.59 0.79 0.94 1.09 1.10 1.11 1.03 0.90 0.81 1.11 1.58 1.39 1.35 1.47 1.64 1.81 1.84 1.71 1.54 1.61 1.69 1.81 1.73 1.59 1.63 1.88 1.95 2.04 2.07 2.11 1.98
0.26 0.31 0.39 0.28 0.24 0.29 0.28 0.34 0.29 0.31 0.29 0.29 0.42 0.47 0.55 1.00 1.02 1.01 1.10 1.13 1.11 0.96 0.88 0.96 1.25 1.55 1.40 1.61 1.68 1.85 1.95 1.92 1.80 1.75 1.62 1.73 1.77 1.82 1.91 1.95 2.01 2.00 2.02 2.05
0.28 0.31 0.30 0.30 0.27 0.28 0.26 0.28 0.31 0.36 0.35 0.28 0.31 0.49 0.57 0.65 0.85 0.96 1.13 1.16 1.17 1.19 1.07 1.08 1.17 1.67 1.47 1.64 1.70 1.75 1.86 1.93 2.02 1.98 1.87 1.59 1.69 1.75 1.83 1.85 1.89 2.03 1.98 1.99
0.20 0.21 0.22 0.20 0.22 0.27 0.26 0.29 0.30 0.40 0.38 0.32 0.51 0.50 0.53 0.76 0.97 0.93 1.05 1.14 1.23 1.30 1.31 1.18 1.24 1.35 1.65 1.79 1.72 1.78 1.84 1.88 1.99 2.00 1.96 1.92 1.73 1.79 1.77 1.74 1.76 1.82 1.95 2.14
0.19 0.14 0.19 0.22 0.21 0.23 0.32 0.35 0.31 0.36 0.40 0.40 0.62 0.54 0.68 0.98 1.01 1.02 1.06 1.14 1.21 1.30 1.29 1.36 1.46 1.46 1.53 1.63 1.78 1.88 1.88 1.83 1.95 1.98 2.01 1.99 1.98 1.90 1.81 1.76 1.73 1.67 1.80 1.90
0.29 0.35 0.34 0.39 0.35 0.32 0.38 0.39 0.44 0.43 0.40 0.36 0.58 0.70 0.89 0.98 0.99 1.02 1.01 0.99 1.00 1.09 1.19 1.29 1.43 1.58 1.63 1.69 1.74 1.76 1.82 1.89 1.89 1.91 1.98 2.04 2.02 2.01 1.94 1.91 1.91 1.93 1.82 1.73
0.40 0.46 0.57 0.52 0.37 0.40 0.40 0.55 0.42 0.50 0.33 0.35 0.66 0.68 0.72 0.97 0.98 0.96 0.91 0.95 0.94 0.96 0.99 1.07 1.18 1.28 1.47 1.70 1.78 1.83 1.83 1.83 1.89 1.96 2.00 2.08 2.11 2.09 2.01 1.97 1.89 1.86 1.95 1.99
0.36 0.37 0.51 0.58 0.46 0.38 0.43 0.41 0.47 0.54 0.58 0.46 0.45 0.71 0.91 0.96 1.07 0.90 0.87 0.91 0.92 0.92 0.94 0.98 1.00 1.10 1.16 1.29 1.47 1.59 1.64 1.70 1.76 1.84 1.93 1.99 2.03 2.17 2.14 2.12 2.00 1.85 1.91 2.02
0.31 0.30 0.34 0.43 0.60 0.58 0.54 0.50 0.50 0.38 0.45 0.63 0.58 0.66 1.06 0.92 1.17 1.02 0.95 0.91 0.93 0.91 0.89 0.89 0.93 0.91 0.93 0.97 1.04 1.10 1.22 1.38 1.50 1.62 1.74 1.79 1.90 2.01 2.08 2.16 2.20 2.11 2.06 2.11
0.46 0.35 0.27 0.36 0.52 0.72 0.61 0.60 0.66 0.70 0.63 0.60 0.56 0.72 1.09 1.08 1.00 0.96 0.89 0.87 0.87 0.81 0.75 0.75 0.75 0.77 0.79 0.81 0.83 0.87 0.93 0.99 1.12 1.25 1.38 1.56 1.63 1.75 1.84 2.01 2.13 2.12 2.03 2.06
0.49 0.44 0.44 0.45 0.59 0.73 0.64 0.56 0.63 0.69 0.46 0.52 0.63 0.81 0.99 1.01 0.93 0.83 0.79 0.78 0.71 0.69 0.69 0.71 0.71 0.71 0.72 0.74 0.77 0.78 0.81 0.89 0.96 1.01 1.07 1.17 1.38 1.54 1.66 1.68 1.82 1.95 1.99 1.85
0.45 0.37 0.51 0.62 0.66 0.65 0.64 0.61 0.56 0.71 0.62 0.47 0.49 0.53 0.90 0.95 0.91 0.81 0.80 0.73 0.59 0.60 0.61 0.70 0.69 0.66 0.65 0.66 0.70 0.72 0.75 0.76 0.82 0.89 0.95 0.99 1.16 1.31 1.50 1.62 1.70 1.74 1.71 1.75
0.51 0.44 0.48 0.61 0.67 0.68 0.73 0.62 0.63 0.67 0.57 0.53 0.54 0.67 0.94 0.95 0.91 0.77 0.67 0.63 0.57 0.59 0.58 0.59 0.60 0.60 0.65 0.72 0.78 0.82 0.86 0.92 0.95 0.88 0.90 0.96 1.02 1.17 1.25 1.38 1.50 1.58 1.64 1.65
0.51 0.52 0.55 0.49 0.68 0.73 0.61 0.69 0.59 0.56 0.61 0.59 0.50 0.66 0.76 0.71 0.68 0.67 0.63 0.56 0.55 0.53 0.54 0.54 0.59 0.69 0.76 0.81 0.85 0.84 0.89 0.94 0.93 0.95 0.99 1.01 1.08 1.11 1.19 1.27 1.33 1.40 1.43 1.53
0.55 0.52 0.48 0.44 0.54 0.43 0.54 0.69 0.62 0.56 0.57 0.56 0.53 0.66 0.70 0.68 0.69 0.65 0.63 0.53 0.54 0.57 0.54 0.60 0.66 0.66 0.69 0.73 0.74 0.81 0.81 0.85 0.92 0.96 1.03 1.08 1.09 1.14 1.19 1.23 1.24 1.29 1.36 1.38
0.47 0.47 0.40 0.35 0.37 0.45 0.48 0.63 0.59 0.50 0.50 0.51 0.47 0.57 0.61 0.62 0.56 0.57 0.62 0.63 0.63 0.63 0.65 0.59 0.58 0.59 0.62 0.68 0.70 0.69 0.72 0.71 0.77 0.81 0.93 1.02 1.07 1.08 1.15 1.19 1.22 1.22 1.25 1.31
0.62 0.56 0.43 0.39 0.33 0.32 0.56 0.61 0.62 0.56 0.43 0.48 0.55 0.52 0.58 0.60 0.39 0.55 0.65 0.69 0.67 0.64 0.58 0.56 0.56 0.59 0.60 0.65 0.68 0.66 0.68 0.71 0.70 0.76 0.81 0.89 0.95 1.02 1.06 1.11 1.17 1.24 1.27 1.23
0.56 0.51 0.37 0.38 0.37 0.43 0.65 0.65 0.67 0.44 0.53 0.66 0.63 0.63 0.62 0.53 0.55 0.60 0.63 0.66 0.66 0.58 0.54 0.57 0.58 0.59 0.65 0.70 0.69 0.66 0.69 0.69 0.79 0.83 0.84 0.90 0.96 0.98 0.98 0.97 1.04 1.15 1.19 1.19
0.42 0.44 0.44 0.40 0.37 0.40 0.72 0.67 0.54 0.72 0.72 0.66 0.61 0.58 0.53 0.55 0.55 0.54 0.62 0.62 0.55 0.51 0.54 0.61 0.57 0.61 0.68 0.72 0.69 0.68 0.69 0.81 0.87 0.89 0.90 0.94 1.01 1.04 1.04 1.03 1.03 1.02 1.10 1.13
0.42 0.50 0.56 0.60 0.66 0.77 0.78 0.77 0.80 0.75 0.68 0.61 0.56 0.60 0.57 0.53 0.54 0.58 0.57 0.54 0.50 0.53 0.62 0.61 0.58 0.61 0.69 0.75 0.75 0.73 0.80 0.86 0.89 0.90 0.92 0.96 1.02 1.05 1.09 1.08 1.07 1.03 1.04 1.05
0.64 0.62 0.51 0.60 0.71 0.72 0.74 0.78 0.73 0.67 0.66 0.65 0.61 0.59 0.57 0.54 0.55 0.56 0.52 0.48 0.51 0.57 0.57 0.60 0.56 0.59 0.66 0.79 0.85 0.85 0.86 0.91 0.90 0.89 0.92 0.97 1.01 1.05 1.10 1.15 1.17 1.13 1.16 1.12
0.73 0.71 0.59 0.49 0.67 0.67 0.67 0.71 0.68 0.65 0.66 0.63 0.62 0.60 0.56 0.54 0.54 0.50 0.47 0.47 0.53 0.54 0.57 0.57 0.54 0.57 0.65 0.76 0.83 0.88 0.89 0.92 0.90 0.92 0.95 0.98 1.01 1.06 1.09 1.20 1.24 1.26 1.29 1.29
0.63 0.59 0.54 0.51 0.69 0.71 0.69 0.77 0.75 0.71 0.64 0.66 0.61 0.57 0.60 0.51 0.46 0.44 0.43 0.49 0.51 0.53 0.56 0.55 0.56 0.57 0.62 0.69 0.73 0.84 0.90 0.94 0.94 0.93 0.96 1.00 1.03 1.07 1.13 1.19 1.21 1.31 1.35 1.32
Wind_Speed
13 11 10 7 7 1 7 2 6 2 2 6 2 3 5 2 3 5 4 6 6 5 5 5 4 5 5 5 7 5 6 9 11 11 10 10 9 8 8 8 8 8 7 6
14 12 12 5 3 5 7 8 9 3 4 8 2 3 5 5 0 1 2 5 6 6 10 9 8 5 5 5 4 5 6 7 8 12 13 11 10 11 9 9 9 10 9 9
14 15 10 4 5 7 8 10 4 7 8 10 7 10 10 13 3 2 2 5 5 8 13 14 8 7 5 5 4 3 4 5 7 8 11 14 12 12 12 12 11 12 11 11
14 12 8 9 8 8 10 6 7 11 11 12 15 5 8 16 9 4 3 0 4 8 5 7 7 6 6 5 4 3 3 3 4 7 7 10 14 14 13 13 13 13 14 13
12 13 12 9 11 11 12 7 10 11 11 13 6 4 9 8 6 3 4 5 3 2 5 5 12 12 8 5 6 4 4 4 4 5 7 8 11 13 14 14 15 15 15 16
14 9 11 13 12 12 11 11 11 13 13 13 15 6 9 5 0 3 4 6 4 5 1 3 7 5 1 6 7 8 7 7 6 7 8 9 9 12 13 13 16 15 16 17
13 12 11 11 12 13 10 11 11 7 13 14 9 3 7 13 7 5 5 6 7 5 6 4 0 2 2 5 8 9 10 11 10 11 11 11 12 11 12 14 14 17 17 17
10 13 15 12 12 13 14 14 14 8 14 15 6 5 5 8 8 6 5 5 5 6 5 3 3 3 6 7 7 10 11 13 14 14 14 14 14 14 15 15 15 16 17 19
8 6 10 10 11 12 13 13 14 17 12 10 7 5 6 8 8 6 4 3 3 3 3 4 4 6 5 6 8 10 10 12 15 16 17 17 18 18 17 17 17 16 17 18
12 7 15 11 11 13 14 10 12 9 9 6 2 4 5 7 7 7 5 2 1 1 3 4 5 7 8 9 10 10 11 13 15 15 16 19 21 22 22 21 20 20 19 19
13 11 8 5 11 14 8 10 8 7 6 7 11 8 9 15 14 9 5 3 3 4 5 7 9 10 10 12 14 15 17 18 19 20 21 21 20 21 22 24 23 22 22 22
16 14 12 15 15 9 10 10 8 6 9 9 14 7 10 13 13 8 4 4 5 7 9 10 11 13 14 15 16 17 18 20 21 22 24 24 25 25 24 23 22 23 22 22
10 14 14 15 12 12 9 4 11 15 7 13 7 8 6 12 8 6 4 6 8 10 11 12 13 13 15 16 17 18 19 20 21 22 23 24 25 27 28 27 26 26 25 25
12 13 11 8 9 16 15 13 9 11 8 7 1 4 11 10 7 4 5 7 9 10 11 11 12 14 16 18 19 20 22 22 23 23 24 24 24 25 27 29 30 31 30 30
13 16 10 11 12 12 27 20 8 15 13 12 15 12 10 9 6 5 7 8 10 11 13 13 16 18 20 21 22 23 25 26 26 25 26 26 26 26 26 26 28 29 29 30
16 15 16 12 9 12 23 17 17 18 14 13 11 3 3 4 7 9 10 11 12 13 15 18 19 21 22 23 24 25 25 26 27 28 29 29 29 29 29 28 28 28 29 30
16 14 12 13 16 9 15 10 8 9 7 9 9 3 6 9 10 11 12 12 13 16 18 20 22 22 23 24 25 26 26 28 28 28 29 30 30 30 30 30 30 30 29 29
11 13 16 17 20 15 13 9 10 12 12 10 11 9 8 10 12 12 12 13 16 18 20 21 22 23 24 25 25 25 26 26 26 27 27 28 29 30 29 29 28 29 29 30
17 16 16 18 19 21 21 10 9 7 9 11 11 8 9 10 12 11 12 15 17 19 20 22 23 24 25 25 26 26 26 26 27 26 27 27 27 28 28 29 29 29 30 30
11 16 20 19 20 20 8 7 6 7 10 9 8 10 9 11 14 12 15 16 19 20 21 22 24 25 26 26 27 26 27 27 27 27 28 29 29 28 29 30 31 30 31 31
13 12 14 16 16 18 10 10 11 13 9 8 8 9 11 13 13 16 18 19 20 21 22 23 24 25 26 27 27 27 27 27 28 28 30 30 30 29 30 31 32 32 32 31
15 13 12 14 16 16 9 11 13 9 8 9 10 11 13 14 15 17 18 19 20 21 22 23 24 26 27 26 26 25 25 25 26 27 28 28 29 28 28 29 30 30 31 31
14 12 9 7 6 8 8 8 9 10 10 11 12 11 13 15 16 16 17 18 19 20 21 23 24 25 26 25 25 24 24 25 26 27 28 28 29 28 28 28 27 27 28 29
13 12 14 10 9 11 10 9 10 11 11 11 12 13 14 15 15 15 16 18 19 20 21 22 24 25 25 25 24 24 25 25 26 27 27 27 26 26 24 23 23 23 24 24
7 7 10 15 13 13 14 13 12 12 12 11 13 14 14 14 15 16 17 18 18 20 21 22 23 24 24 25 24 24 24 24 25 26 26 26 24 23 22 21 20 21 22 23
13 12 13 10 8 11 11 13 13 11 12 13 13 13 13 14 15 16 17 18 19 20 21 21 23 23 23 24 23 22 23 23 24 25 25 24 23 22 20 19 19 19 20 22
Wind_Direction
202 213 226 251 277 161 214 284 271 233 297 275 325 355 357 317 214 187 195 195 187 189 167 154 137 133 153 164 182 195 196 208 205 208 212 222 227 236 241 242 239 232 246 253
208 218 238 296 267 238 231 249 266 248 284 270 203 48 26 26 140 207 240 202 209 210 191 174 156 147 150 153 168 200 217 218 220 225 227 235 241 244 248 248 245 244 253 253
221 220 226 272 214 219 231 253 273 280 281 274 214 29 20 13 45 125 225 251 253 246 217 165 157 149 160 157 161 176 206 219 229 239 238 240 248 248 252 253 251 248 252 256
221 232 230 233 238 241 266 242 286 279 268 268 232 238 348 341 335 40 56 37 220 249 243 195 176 159 186 202 193 199 203 223 235 238 249 246 244 246 250 251 252 252 249 256
222 224 225 231 235 241 262 298 283 275 271 273 233 239 276 43 284 71 55 47 48 222 242 253 245 192 162 207 221 225 231 244 254 258 257 259 248 247 251 254 256 253 255 258
232 234 240 242 239 246 268 272 273 267 260 262 260 225 267 273 198 121 86 58 74 60 118 231 309 228 192 223 241 243 243 252 261 267 268 260 267 259 260 259 257 258 258 258
226 243 232 242 249 244 245 256 267 306 278 263 149 143 229 227 223 161 123 82 85 83 67 80 31 355 16 259 252 258 253 258 264 269 267 266 265 268 267 266 265 260 262 256
223 233 230 221 233 247 240 255 266 267 277 249 302 195 193 207 174 160 140 109 89 69 65 45 12 304 286 293 293 267 264 267 267 269 267 267 269 270 270 270 269 262 262 259
258 289 198 224 234 237 252 256 281 294 272 271 216 242 233 174 180 173 157 134 95 58 32 7 338 335 323 306 290 290 292 279 275 273 268 269 268 268 271 271 268 268 267 267
250 238 233 235 248 245 250 283 299 308 286 266 214 192 260 230 227 192 184 177 133 352 348 341 331 323 313 302 298 293 294 288 284 283 283 275 272 269 268 268 267 268 269 268
244 264 225 262 252 246 232 259 276 295 323 248 254 268 315 242 237 197 200 223 288 300 309 310 311 310 306 302 298 294 294 290 289 286 282 279 277 276 272 267 266 267 267 267
233 253 256 240 250 215 234 238 236 281 264 280 263 277 232 200 217 187 208 259 287 295 302 304 302 304 303 301 301 299 296 293 291 289 284 280 277 275 273 272 269 268 269 269
237 239 255 255 235 309 267 300 291 275 237 242 289 302 216 208 194 211 244 273 285 296 301 301 304 303 303 303 301 300 299 299 297 293 290 286 280 277 272 268 268 268 268 268
238 250 277 252 248 266 267 291 293 304 275 321 346 168 213 205 208 236 274 290 297 297 301 302 305 308 306 303 301 300 298 298 297 296 293 290 288 284 277 272 268 267 267 267
231 247 259 237 273 275 245 260 274 287 295 300 313 330 211 214 238 269 284 297 302 304 305 309 307 306 305 303 302 300 298 296 294 294 293 290 289 285 283 279 272 269 268 267
235 250 255 244 245 263 261 243 244 248 283 287 301 9 227 251 266 278 289 298 301 303 305 305 305 305 305 304 302 300 299 298 294 291 291 289 287 284 280 278 276 274 271 269
236 254 273 275 255 231 252 260 260 283 272 283 290 285 259 266 273 284 292 299 300 301 303 304 305 306 306 306 305 303 302 299 296 295 293 289 286 283 281 277 274 273 273 272
269 257 262 273 270 284 283 266 270 272 278 281 271 261 273 291 289 288 294 294 298 302 304 306 306 307 307 307 306 305 304 305 301 298 298 296 291 284 279 276 276 274 272 272
259 268 269 267 269 274 272 250 271 273 275 284 257 255 272 278 275 282 292 295 300 303 305 305 305 306 306 308 308 306 305 304 303 303 300 298 294 287 281 277 275 275 273 272
261 280 264 264 265 266 259 248 259 280 285 269 256 269 272 283 285 285 295 297 301 304 305 306 307 306 307 309 308 306 304 304 303 303 303 299 293 288 282 277 275 275 275 273
260 270 269 259 252 257 232 243 265 271 272 276 273 276 280 282 286 292 295 299 302 304 306 307 308 308 309 309 308 306 305 304 305 304 302 298 294 290 286 281 275 273 273 273
265 262 260 253 255 248 233 256 271 259 259 270 276 278 281 284 288 291 296 299 303 305 307 309 309 309 310 310 310 308 308 309 309 309 307 304 298 293 288 285 279 275 271 270
243 255 263 263 245 232 253 255 251 257 263 273 278 278 282 286 290 294 296 300 304 307 310 311 312 312 312 311 310 310 310 311 311 313 311 308 302 296 291 286 283 277 273 268
238 246 246 250 237 240 248 256 261 273 269 275 280 283 287 288 291 295 299 301 304 308 310 312 314 315 315 312 309 309 309 311 313 315 316 312 308 303 294 291 287 278 273 271
253 244 256 250 242 251 256 254 261 270 272 274 282 285 288 289 291 295 298 302 306 308 310 313 314 317 317 315 312 311 312 312 315 315 317 317 312 308 300 293 291 284 278 275
249 257 251 264 262 250 266 251 258 262 271 277 281 282 285 290 291 296 298 301 306 309 311 313 315 317 318 317 315 314 315 315 316 317 317 318 315 311 305 301 296 291 286 285